Back to catalog

KUIPER-00146

AliveCommunicationsLEO
NORAD 65967·PAYLOAD·🇺🇸 United States

Launched Oct 14, 2025 from Cape Canaveral Space Force Station

Loading…

Next Passes (next 24 hours)

TLE

FreshSource: CelesTrak SupGP

Epoch: Sep 14, 2026, 16:05 UTC

1 65967C 25228W   26257.67024306 -.00011103  00000+0 -14532-2 0  2573
2 65967  51.9018 227.5733 0000838  55.0397 345.1926 14.79947340    15

Track KUIPER-00146 in real time with AllMySat

Download on the App Store